SCOUT B R/B, 3341

Orbit data source: Space-Track

SCOUT B R/B, 3341 is space debris in LEO originally from a launch on Thu, 08 Aug 1968 UTC launched from the Air Force Western Test Range (AFWTR). Debris objects in space refer to the collection of defunct objects orbiting the Earth. Examples of debris include non-operational satellites, rocket bodies, and fragments generated from explosions, collisions, or faulty payload assembly.

Loading next visibility...
Identifier
3341, 1968-066C
Orbit
LEO
Country
Flag of USUS
Related business
Manufacturer
UTC
Mission
Spacecraft
Bus & Motor
FW4, Unknown motor
Mass
47 kg wet, 47 kg dry
Launch date (UTC)
1968-08-08 (58 years ago)
Launch vehicle
Unknown
Launch site
Air Force Western Test Range (AFWTR)
Object type
Payload
Rocket body
Debris
Shape & HBR
Unknown
Radar Cross Section
Medium (>0.1 m² and <1 m²)

Expand to show TLE details & history
Last TLE update: 23 hours ago

TLE from 23 hours ago
0 SCOUT B R/B
1 03341U 68066C   26067.65672535  .00000141  00000-0  13487-3 0  9999
2 03341  80.6613 129.2704 1115853  52.2457 317.4522 12.26156654551194
Epoch: 2026-03-08T15:45Z
TLE epoch observation values (Epoch: 2026-03-08T15:45:41.070Z)
Latitude
0.00001°
Longitude
86.48839°
Altitude
966.552 km
Speed
7.642 km/s
True Right ascension
08h 37m 04s
True Declination
0° 00' 00"
Sunlit
Object was in full shadow at epoch
Visualization orbit readout
Latitude
Unknown
Longitude
Unknown
Altitude
Unknown
Speed
Unknown
Apparent Right ascension
Unknown
Apparent Declination
Unknown
Sunlit
N/A
Visualization observer readout
Local Sidereal Time
18:59:09
Azimuth
Unknown
Elevation
Unknown
Doppler factor
Unknown
Orbital elements
Apogee altitude
2,449.383 km
Perigee altitude
677.101 km
Semi-major axis
7,941.379 km
Eccentricity
0.11159
Inclination
80.6613°
RAAN
129.2704°
Arg. of periapsis
52.2457°
True anomaly
307.86611°
Mean anomaly
317.4522°
Eccentric anomaly
312.75801°
Mean motion
3.0669 °/min
Orbital period
117.38 mins
BSTAR
0.00013487
Loading maneuver chart data...
Computing Atmospheric mass density...
Loading historical data...
Loading historical data...
Loading historical data...
Loading historical data...
Loading historical data...
Loading historical data...
Loading historical data...

Documentation

Showing up to 5 results
|